Lihue, HI

12:39 AM HST on December 14, 2017 (GMT -1000)
Lihue

Weather History for PHLI - May, 2013

Change the Weather History Date:

Thursday, May 2, 2013

  Actual Average Record
Temperature  
Mean Temperature 77 °F 75 °F  
Max Temperature 80 °F 80 °F 86 °F (2017)
Min Temperature 73 °F 69 °F 59 °F (1989)
Degree Days  
Heating Degree Days 0 0  
Month to date heating degree days 0 0  
Since 1 July heating degree days 0 0  
Cooling Degree Days 12 10  
Month to date cooling degree days 22 20  
Year to date cooling degree days 784 924  
Growing Degree Days 26 (Base 50)    
Moisture  
Dew Point 69 °F    
Average Humidity 81    
Maximum Humidity 87    
Minimum Humidity 74    
Precipitation  
Precipitation 0.00 in 0.08 in 2.05 in (1970)
Month to date precipitation 0.00 0.16  
Year to date precipitation 14.22 13.93  
Snow  
Snow 0.00 in - - ()
Month to date snowfall 0.0  
Since 1 July snowfall 0.0  
Snow Depth 0.00 in    
Sea Level Pressure  
Sea Level Pressure 30.07 in    
Wind  
Wind Speed 11 mph (East)    
Max Wind Speed 15 mph    
Max Gust Speed 18 mph    
Visibility 10 miles    
Events      
T = Trace of Precipitation, MM = Missing Value Source: NWS Daily Summary

Daily Weather History Graph

Daily Weather History Graph

Search for Another Location

Airport or City:

Trip Planner

Search our weather history database for the weather conditions in past years. The results will help you decide how hot, cold, wet, or windy it might be!

Date:

Astronomy

May. 02, 2013 Rise Set
Actual Time 6:04 AM HST 7:04 PM HST
Civil Twilight 5:41 AM HST 7:27 PM HST
Nautical Twilight 5:13 AM HST 7:55 PM HST
Astronomical Twilight 4:45 AM HST 8:23 PM HST
Moon 1:07 AM HST (5/2) 12:54 PM HST (5/2)
Length of Visible Light 13h 46m
Length of Day
12h 59m
Last Quarter, 45% of the Moon is Illuminated
May 2
Last Quarter
May 9
New
May 17
First Quarter
May 24
Full
May 31
Last Quarter

Hourly Weather History & Observations

Time (HST) Temp. Heat Index Dew Point Humidity Pressure Visibility Wind Dir Wind Speed Gust Speed Precip Events Conditions
12:53 AM 73.9 °F - 69.1 °F 85% 30.07 in 10.0 mi East 11.5 mph - N/A   Partly Cloudy
1:53 AM 73.9 °F - 68.0 °F 82% 30.05 in 10.0 mi East 13.8 mph - N/A   Partly Cloudy
2:53 AM 73.9 °F - 69.1 °F 85% 30.04 in 10.0 mi East 13.8 mph - N/A   Mostly Cloudy
3:53 AM 73.0 °F - 69.1 °F 87% 30.04 in 10.0 mi East 10.4 mph - N/A   Mostly Cloudy
4:53 AM 73.0 °F - 69.1 °F 87% 30.04 in 10.0 mi ESE 9.2 mph - N/A   Clear
5:53 AM 73.9 °F - 69.1 °F 85% 30.05 in 10.0 mi East 9.2 mph - N/A   Mostly Cloudy
6:53 AM 73.9 °F - 69.1 °F 85% 30.07 in 10.0 mi ESE 8.1 mph - N/A   Scattered Clouds
7:53 AM 75.9 °F - 69.1 °F 79% 30.09 in 10.0 mi East 8.1 mph - N/A   Overcast
8:53 AM 77.0 °F - 70.0 °F 79% 30.10 in 10.0 mi East 10.4 mph - N/A   Scattered Clouds
9:53 AM 79.0 °F - 70.0 °F 74% 30.11 in 10.0 mi East 10.4 mph - N/A   Clear
10:53 AM 80.1 °F 83.6 °F 71.1 °F 74% 30.11 in 10.0 mi East 11.5 mph - N/A   Scattered Clouds
11:53 AM 79.0 °F - 70.0 °F 74% 30.10 in 10.0 mi East 10.4 mph - N/A   Clear
12:53 PM 80.1 °F 83.6 °F 71.1 °F 74% 30.09 in 10.0 mi East 10.4 mph - N/A   Scattered Clouds
1:53 PM 80.1 °F 83.6 °F 71.1 °F 74% 30.07 in 10.0 mi East 10.4 mph - N/A   Clear
2:53 PM 79.0 °F - 70.0 °F 74% 30.06 in 10.0 mi East 10.4 mph - N/A   Clear
3:53 PM 78.1 °F - 70.0 °F 76% 30.05 in 10.0 mi East 10.4 mph - N/A   Scattered Clouds
4:17 PM 78.8 °F - 69.8 °F 74% 30.06 in 10.0 mi East 11.5 mph - N/A   Mostly Cloudy
4:53 PM 78.1 °F - 70.0 °F 76% 30.04 in 10.0 mi East 11.5 mph - N/A   Scattered Clouds
5:10 PM 77.0 °F - 69.8 °F 78% 30.05 in 10.0 mi East 11.5 mph - N/A   Mostly Cloudy
5:53 PM 75.9 °F - 69.1 °F 79% 30.05 in 10.0 mi East 9.2 mph - N/A   Mostly Cloudy
6:33 PM 75.2 °F - 68.0 °F 78% 30.07 in 10.0 mi East 10.4 mph - N/A   Scattered Clouds
6:53 PM 75.0 °F - 68.0 °F 79% 30.06 in 10.0 mi East 9.2 mph - N/A   Scattered Clouds
7:53 PM 73.9 °F - 69.1 °F 85% 30.08 in 10.0 mi East 8.1 mph - N/A   Clear
8:34 PM 73.4 °F - 69.8 °F 88% 30.10 in 10.0 mi ENE 6.9 mph - N/A   Mostly Cloudy
8:48 PM 73.4 °F - 69.8 °F 88% 30.10 in 10.0 mi ENE 6.9 mph - N/A   Scattered Clouds
8:53 PM 73.9 °F - 69.1 °F 85% 30.10 in 10.0 mi ENE 5.8 mph - N/A   Partly Cloudy
9:53 PM 72.0 °F - 69.1 °F 91% 30.10 in 10.0 mi West 3.5 mph - N/A   Clear
10:53 PM 71.1 °F - 69.1 °F 93% 30.10 in 10.0 mi WNW 6.9 mph - N/A   Clear
11:53 PM 70.0 °F - 68.0 °F 93% 30.09 in 10.0 mi West 6.9 mph - N/A   Clear